[[{"header":{"parameterUnit":"m.s-1","parameterCategory":1,"la1":30.2991,"la2":30.254,"lo1":-89.0895,"lo2":-89.0444,"dy":0.0017,"dx":0.0017,"nx":28,"ny":28,"refTime":"2024-11-28T03:00:00:Z","depth":0,"parameterNumber":2,"parameterNumberName":"U-component_of_WINDS"},"data":[0,0,0,0,0,0,0,0,0,0,0,0,0,0,0,0,0,0,0,0,0,0,0,0,0,0,0,0,0,0,0,0,0,0,0,0,0,0,0,0,0,0,0,0,0,0,0,0,0,0,0,0,0,0,0,0,0,0,2.4282,2.4283,0,2.4456,2.4458,2.446,2.4471,2.4469,2.4467,2.4465,2.4657,2.4664,2.4671,0,0,0,0,0,0,0,0,0,0,0,0,0,2.3967,2.3973,2.4281,2.4284,2.4286,2.4456,2.4458,2.4461,2.4471,2.4469,2.4466,2.4464,2.4655,2.4663,2.4671,0,0,0,0,0,0,0,0,0,0,0,0,0,2.4119,2.3975,2.4281,2.4311,2.4316,2.4455,2.4459,2.4462,2.4472,2.4469,2.4466,2.4463,2.4652,2.4662,2.4672,2.4798,0,0,2.4705,2.4709,0,0,0,0,0,0,0,0,2.4111,2.4131,2.4305,2.4309,2.4315,2.4438,2.4418,2.4575,2.4473,2.4413,2.4465,2.4462,2.4588,2.4603,2.4643,2.4807,2.4815,2.4705,2.4712,2.4716,2.4719,0,0,0,0,0,0,0,2.41,2.4123,2.4351,2.4307,2.4313,2.4319,2.4338,2.4448,2.4516,2.4418,2.4419,2.4439,2.459,2.4633,2.4648,2.4818,2.4705,2.4715,2.4721,2.4725,2.5094,2.5097,0,0,0,0,0,0,2.4082,2.4114,2.4346,2.4356,2.4203,2.4327,2.4348,2.4402,2.4514,2.4528,2.4441,2.4439,2.4616,2.4635,2.4654,2.481,2.4716,2.4726,2.4732,2.509,2.5095,2.5099,0,0,0,0,0,0,2.4075,2.4102,2.4338,2.4236,2.4266,2.4336,2.4397,2.4407,2.445,2.4532,2.4545,2.4472,2.4615,2.464,2.4761,2.4816,2.4731,2.474,2.5086,2.5092,2.5097,2.512,0,0,0,0,0,0,2.4066,2.41,2.4146,2.4236,2.4271,2.444,2.44,2.4413,2.4467,2.4465,2.4564,2.4578,2.4614,2.4746,2.4772,2.4829,2.4749,2.5082,2.5089,2.5095,2.5115,2.5126,2.5135,0,0,0,0,0,2.4055,2.4149,2.4149,2.4176,2.433,2.4443,2.4463,2.4499,2.4471,2.452,2.4572,2.4575,2.4805,2.4758,2.4788,2.4849,2.5079,2.5087,2.5094,2.5111,2.5124,2.5134,0,0,0,0,0,0,2.4069,2.4161,2.4162,2.4287,2.4356,2.4444,2.4507,2.4512,2.4594,2.459,2.4634,2.4657,2.4777,2.4825,2.4771,2.4976,2.4939,2.4953,2.4941,2.4954,2.4964,2.4952,2.4757,0,0,0,0,0,2.4085,2.4165,2.4243,2.4346,2.438,2.4437,2.4488,2.4508,2.4584,2.4615,2.4676,2.4752,2.4841,2.49,2.4987,2.512,2.5144,2.5177,2.5187,2.5195,2.5208,2.5283,2.5299,2.5124,2.5124,2.5124,0,0,2.4123,2.4183,2.4232,2.4351,2.4407,2.4492,2.4462,2.4554,2.4618,2.463,2.4748,2.4795,2.4883,2.5011,2.5071,2.5055,2.526,2.5205,2.521,2.522,2.5293,2.5309,2.5324,2.513,2.5129,2.5128,0,0,2.4235,2.4287,2.4379,2.4434,2.4517,2.4553,2.4575,2.4661,2.4692,2.4809,2.4819,2.4898,2.5051,2.5113,2.5165,2.5295,2.5303,2.5323,2.5377,2.5449,2.5463,2.5475,2.5524,2.5541,2.5335,2.5335,2.5335,0,2.4273,2.4397,2.4426,2.4517,2.457,2.4577,2.4672,2.4726,2.4835,2.4873,2.4851,2.5042,2.5102,2.5245,2.5276,2.5317,2.5346,2.5314,2.5457,2.547,2.5483,2.553,2.5548,2.5337,2.5336,2.5336,2.5336,0,2.444,2.4526,2.4591,2.469,2.475,2.4842,2.4888,2.4946,2.496,2.5,2.512,2.5191,2.5292,2.5327,2.5344,2.5472,2.546,2.5447,2.5412,2.5501,2.5546,2.5564,2.534,2.5339,2.5338,2.5338,0,0,2.4572,2.4681,2.4705,2.475,2.484,2.4909,2.5002,2.5096,2.5145,2.5219,2.53,2.5427,2.5415,2.5474,2.5498,2.5561,2.5662,2.5541,2.5544,2.5563,2.5809,2.582,2.5841,2.5664,2.5668,2.5671,2.5803,0,2.4695,2.4856,2.4884,2.5027,2.5108,2.5114,2.5196,2.5261,2.53,2.5377,2.5421,2.5511,2.5487,2.5522,2.5584,2.5636,2.5712,2.5626,2.5745,2.5749,2.5726,2.5864,2.5877,2.5998,2.582,2.5823,2.5826,0,2.4863,2.4936,2.5085,2.5162,2.5197,2.5269,2.5357,2.5429,2.5504,2.5528,2.559,2.5606,2.5706,2.5661,2.5801,2.5742,2.5791,2.5824,2.5829,2.5845,2.5795,2.5887,2.6038,2.6057,2.5853,2.5851,2.5849,0,2.4946,2.5082,2.5188,2.5226,2.5319,2.5369,2.5411,2.5482,2.5536,2.5614,2.565,2.5739,2.5789,2.586,2.59,2.5864,2.6037,2.5996,2.6063,2.6063,2.6104,2.6101,2.6268,2.6129,2.6129,2.6129,2.6128,0,2.5085,2.5177,2.5227,2.5293,2.5396,2.5427,2.553,2.5571,2.5634,2.571,2.5722,2.5795,2.5841,2.5922,2.5954,2.6066,2.6088,2.6113,2.6121,2.6114,2.6111,2.615,2.6144,2.6134,2.6133,2.6132,2.6131,0,2.5198,2.5234,2.5351,2.5427,2.5448,2.5521,2.5587,2.5654,2.5689,2.5786,2.5811,2.5869,2.5963,2.6009,2.6128,2.6149,2.6277,2.6278,2.625,2.6254,2.632,2.6314,2.652,2.655,2.6388,2.639,2.6391,0,2.5285,2.5355,2.5436,2.5485,2.5527,2.5607,2.5661,2.5693,2.5749,2.5838,2.5894,2.5987,2.6064,2.6215,2.6271,2.6362,2.6367,2.6433,2.6382,2.6372,2.6372,2.6368,2.6377,2.6444,2.6446,2.6447,2.6448,0,2.5438,2.5451,2.5525,2.5606,2.5668,2.5734,2.58,2.5841,2.5884,2.5947,2.604,2.6099,2.6217,2.6311,2.6405,2.6452,2.6459,2.6462,2.6483,2.6479,2.6461,2.6474,2.6279,2.6459,2.6458,2.6457,2.6457,2.6456,2.5543,2.5605,2.5671,2.5753,2.5804,2.5864,2.5929,2.597,2.6047,2.6143,2.6157,2.6258,2.6331,2.6456,2.6505,2.6587,2.6573,2.6602,2.6611,2.6618,2.6623,2.6443,2.6604,2.6604,2.6603,2.6603,2.6603,0,2.5698,2.5739,2.5814,2.5902,2.5967,2.596,2.6031,2.6088,2.6174,2.6239,2.6312,2.642,2.651,2.657,2.6662,2.6716,2.6722,2.674,2.6738,2.6749,2.6629,2.6603,2.6733,2.6733,2.6733,2.6733,2.6733,2.6733,2.5787,2.5891,2.5912,2.6043,2.6084,2.6179,2.622,2.6276,2.6327,2.6445,2.6518,2.6554,2.6618,2.6714,2.6798,2.6813,2.6848,2.6867,2.6883,2.6771,2.6758,2.6745,2.672,2.6873,2.6874,2.6997,2.6998,2.6999]},{"header":{"parameterUnit":"m.s-1","parameterCategory":1,"la1":30.2991,"la2":30.254,"lo1":-89.0895,"lo2":-89.0444,"dy":0.0017,"dx":0.0017,"nx":28,"ny":28,"refTime":"2024-11-28T03:00:00:Z","depth":0,"parameterNumber":3,"parameterNumberName":"V-component_of_WINDS"},"data":[0,0,0,0,0,0,0,0,0,0,0,0,0,0,0,0,0,0,0,0,0,0,0,0,0,0,0,0,0,0,0,0,0,0,0,0,0,0,0,0,0,0,0,0,0,0,0,0,0,0,0,0,0,0,0,0,0,0,0.9652,0.9653,0,0.9751,0.9752,0.9754,0.9704,0.9702,0.9699,0.9696,0.9803,0.9808,0.9813,0,0,0,0,0,0,0,0,0,0,0,0,0,0.9421,0.9426,0.9652,0.9653,0.9654,0.9751,0.9752,0.9754,0.9705,0.9701,0.9698,0.9695,0.9801,0.9807,0.9813,0,0,0,0,0,0,0,0,0,0,0,0,0,0.9521,0.9427,0.9652,0.9641,0.9641,0.9751,0.9753,0.9754,0.9705,0.9701,0.9697,0.9694,0.9799,0.9806,0.9814,0.9941,0,0,0.9838,0.9842,0,0,0,0,0,0,0,0,0.9516,0.953,0.9642,0.9642,0.9642,0.9711,0.971,0.9817,0.9706,0.9681,0.9696,0.9692,0.9776,0.9785,0.9812,0.9946,0.995,0.9839,0.9844,0.9847,0.9849,0,0,0,0,0,0,0,0.9509,0.9525,0.9691,0.9643,0.9644,0.9632,0.9642,0.973,0.9749,0.9683,0.968,0.9692,0.9775,0.9805,0.9815,0.9952,0.9839,0.9846,0.9851,0.9854,1.0193,1.0197,0,0,0,0,0,0,0.9502,0.952,0.9688,0.9694,0.9568,0.964,0.9651,0.9693,0.9748,0.9753,0.9695,0.9689,0.9793,0.9805,0.9818,0.997,0.9847,0.9854,0.9859,1.0188,1.0193,1.0198,0,0,0,0,0,0,0.9497,0.9517,0.9684,0.9606,0.9626,0.9648,0.9696,0.9697,0.9727,0.9757,0.9761,0.9722,0.9791,0.9807,0.991,0.9973,0.9858,0.9865,1.0183,1.019,1.0196,1.0275,0,0,0,0,0,0,0.9491,0.9516,0.9564,0.9607,0.9631,0.9774,0.97,0.9702,0.974,0.9734,0.9783,0.9788,0.9789,0.9899,0.9918,0.9982,0.9871,1.0178,1.0186,1.0194,1.0267,1.0283,1.0297,0,0,0,0,0,0.9483,0.9584,0.9567,0.9588,0.9691,0.9778,0.9791,0.979,0.9746,0.9794,0.9813,0.9786,0.9962,0.991,0.9931,0.9998,1.0174,1.0184,1.0193,1.026,1.028,1.0297,0,0,0,0,0,0,0.955,0.9589,0.9571,0.9689,0.973,0.9769,0.9832,0.9811,0.9867,0.9858,0.9854,0.9866,0.9973,0.9995,0.9936,1.0122,1.0061,1.0076,1.0105,1.0124,1.0139,1.0133,0.9878,0,0,0,0,0,0.9577,0.9644,0.9675,0.9776,0.9797,0.9811,0.9849,0.9843,0.9886,0.9904,0.993,0.9974,1.0039,1.0082,1.0144,1.0268,1.0279,1.0325,1.034,1.0352,1.0366,1.0433,1.0454,1.023,1.023,1.0229,0,0,0.9637,0.9667,0.971,0.979,0.9822,0.9891,0.9826,0.9903,0.9954,0.9916,1.0015,1.0035,1.0084,1.0198,1.0249,1.022,1.0429,1.0364,1.0374,1.0381,1.0445,1.0466,1.0485,1.0236,1.0235,1.0234,0,0,0.9782,0.981,0.9897,0.9929,0.9976,0.9984,1.0005,1.0046,1.0058,1.0156,1.0129,1.019,1.0302,1.0337,1.037,1.0523,1.0501,1.0543,1.0624,1.0689,1.0707,1.0723,1.0778,1.0798,1.0556,1.0556,1.0556,0,0.9851,0.9953,0.9945,1.0023,1.006,1.0025,1.0113,1.0145,1.021,1.0237,1.0201,1.034,1.037,1.0492,1.0529,1.0556,1.058,1.0539,1.0705,1.072,1.0735,1.0788,1.0809,1.0561,1.056,1.056,1.056,0,1.0035,1.0107,1.0171,1.0233,1.0276,1.0359,1.0364,1.0409,1.0398,1.041,1.0509,1.0544,1.0611,1.0639,1.063,1.0759,1.0739,1.0704,1.0643,1.0761,1.0811,1.0832,1.0568,1.0566,1.0565,1.0564,0,0,1.0229,1.0283,1.0307,1.0334,1.0382,1.0437,1.0517,1.0581,1.062,1.0665,1.0733,1.0826,1.0794,1.0831,1.0826,1.0883,1.1002,1.0841,1.0842,1.0871,1.1147,1.1174,1.1198,1.0986,1.099,1.0993,1.1143,0,1.0378,1.0518,1.0512,1.0643,1.0709,1.0675,1.0745,1.0782,1.0794,1.0851,1.0864,1.0931,1.0883,1.0905,1.0959,1.0976,1.1058,1.0965,1.1051,1.1054,1.1042,1.1224,1.1254,1.1394,1.1162,1.1166,1.1168,0,1.0571,1.0621,1.0759,1.0795,1.0822,1.0885,1.0942,1.0997,1.1038,1.1042,1.1082,1.1066,1.1148,1.1081,1.1194,1.1131,1.1164,1.1178,1.1183,1.1194,1.112,1.1241,1.1439,1.146,1.1198,1.1196,1.1194,0,1.07,1.0801,1.0896,1.092,1.0965,1.101,1.1031,1.1067,1.1105,1.1155,1.1179,1.1238,1.1271,1.1317,1.1318,1.1269,1.1432,1.1366,1.1439,1.1439,1.1478,1.1476,1.1686,1.1495,1.1495,1.1495,1.1494,0,1.0869,1.0955,1.0955,1.1014,1.1109,1.1099,1.1194,1.121,1.1242,1.1303,1.1277,1.1336,1.1332,1.1391,1.1391,1.1485,1.1499,1.1506,1.1506,1.151,1.1509,1.1534,1.1526,1.15,1.1499,1.1498,1.1497,0,1.1031,1.1034,1.1136,1.1168,1.1178,1.1246,1.1274,1.133,1.1337,1.1415,1.1433,1.1446,1.1514,1.1517,1.1596,1.1597,1.171,1.1698,1.1697,1.1695,1.1769,1.1763,1.2004,1.2036,1.1823,1.1825,1.1827,0,1.1139,1.1204,1.1242,1.1281,1.1304,1.1366,1.1404,1.1397,1.1438,1.1487,1.1537,1.1601,1.1653,1.1763,1.178,1.184,1.183,1.191,1.1839,1.1841,1.1833,1.183,1.1837,1.1926,1.1928,1.193,1.1931,0,1.1332,1.1329,1.1385,1.144,1.1486,1.1529,1.157,1.1603,1.16,1.1647,1.1715,1.1755,1.1834,1.1899,1.1956,1.1978,1.1955,1.1953,1.1973,1.198,1.1977,1.1981,1.1737,1.1948,1.1947,1.1945,1.1945,1.1944,1.1472,1.1528,1.1563,1.1625,1.1653,1.1691,1.1745,1.1758,1.1814,1.1877,1.1868,1.1944,1.1981,1.2055,1.2081,1.2141,1.2113,1.2143,1.2151,1.2159,1.2167,1.1965,1.2151,1.215,1.215,1.2149,1.2149,0,1.1664,1.1684,1.1741,1.1798,1.1846,1.1817,1.1859,1.1902,1.1969,1.2004,1.2055,1.2132,1.2194,1.2214,1.2274,1.2318,1.2309,1.2334,1.2332,1.2338,1.2187,1.2164,1.234,1.234,1.234,1.234,1.234,1.234,1.1771,1.1864,1.1865,1.1971,1.199,1.2064,1.209,1.2125,1.2153,1.224,1.2291,1.2302,1.2332,1.2393,1.2448,1.2452,1.2477,1.2507,1.2507,1.2367,1.2348,1.233,1.2308,1.2512,1.2512,1.2652,1.2654,1.2655]}]]